Time,TemperatureF,DewpointF,PressureIn,WindDirection,WindDirectionDegrees,WindSpeedMPH,WindSpeedGustMPH,Humidity,HourlyPrecipIn,Conditions,Clouds,dailyrainin,SoftwareType,DateUTC
2013-06-04 00:02:00,54.4,51.2,29.89,SW,230,0.0,10.0,89,0.00,,,0.00,LWC V1.00 B64,2013-06-04 07:02:00,
2013-06-04 00:07:00,54.3,51.4,29.89,SW,230,2.0,2.0,90,0.00,,,0.00,LWC V1.00 B64,2013-06-04 07:07:00,
2013-06-04 00:12:00,54.3,51.1,29.89,SW,229,0.0,0.0,89,0.00,,,0.00,LWC V1.00 B64,2013-06-04 07:12:00,
2013-06-04 00:17:00,54.2,51.3,29.90,SW,230,0.0,4.0,90,0.00,,,0.00,LWC V1.00 B64,2013-06-04 07:17:00,
2013-06-04 00:22:00,54.3,51.4,29.89,SW,232,0.0,1.0,90,0.00,,,0.00,LWC V1.00 B64,2013-06-04 07:22:00,
2013-06-04 00:27:00,54.2,51.3,29.89,SSW,198,0.0,4.0,90,0.00,,,0.00,LWC V1.00 B64,2013-06-04 07:27:00,
2013-06-04 00:32:00,54.2,51.3,29.89,South,190,1.0,3.0,90,0.00,,,0.00,LWC V1.00 B64,2013-06-04 07:32:00,
2013-06-04 00:37:00,54.2,51.3,29.89,South,190,1.0,1.0,90,0.00,,,0.00,LWC V1.00 B64,2013-06-04 07:37:00,
2013-06-04 00:42:00,54.2,51.3,29.89,South,190,0.0,1.0,90,0.00,,,0.00,LWC V1.00 B64,2013-06-04 07:42:00,
2013-06-04 00:47:00,54.2,51.3,29.89,South,190,0.0,2.0,90,0.00,,,0.00,LWC V1.00 B64,2013-06-04 07:47:00,
2013-06-04 00:52:00,54.2,51.3,29.90,South,190,1.0,1.0,90,0.00,,,0.00,LWC V1.00 B64,2013-06-04 07:52:00,
2013-06-04 00:57:00,54.0,51.1,29.89,South,191,0.0,0.0,90,0.00,,,0.00,LWC V1.00 B64,2013-06-04 07:57:00,
2013-06-04 01:02:00,54.0,51.1,29.89,South,191,0.0,0.0,90,0.00,,,0.00,LWC V1.00 B64,2013-06-04 08:02:00,
2013-06-04 01:07:00,53.9,51.0,29.89,South,191,0.0,0.0,90,0.00,,,0.00,LWC V1.00 B64,2013-06-04 08:07:00,
2013-06-04 01:12:00,53.9,51.0,29.89,South,191,0.0,0.0,90,0.00,,,0.00,LWC V1.00 B64,2013-06-04 08:12:00,
2013-06-04 01:17:00,53.8,50.9,29.89,South,191,0.0,0.0,90,0.00,,,0.00,LWC V1.00 B64,2013-06-04 08:17:00,
2013-06-04 01:22:00,53.7,50.8,29.89,South,191,0.0,0.0,90,0.00,,,0.00,LWC V1.00 B64,2013-06-04 08:22:00,
2013-06-04 01:27:00,53.7,50.8,29.89,SSW,192,0.0,2.0,90,0.00,,,0.00,LWC V1.00 B64,2013-06-04 08:27:00,
2013-06-04 01:32:00,53.7,50.8,29.89,SSW,196,0.0,3.0,90,0.00,,,0.00,LWC V1.00 B64,2013-06-04 08:32:00,
2013-06-04 01:37:00,53.7,50.8,29.89,SSW,196,0.0,4.0,90,0.00,,,0.00,LWC V1.00 B64,2013-06-04 08:37:00,
2013-06-04 01:42:00,53.7,50.8,29.89,SSW,196,0.0,0.0,90,0.00,,,0.00,LWC V1.00 B64,2013-06-04 08:42:00,
2013-06-04 01:47:00,53.7,51.1,29.89,SSW,196,0.0,0.0,91,0.00,,,0.00,LWC V1.00 B64,2013-06-04 08:47:00,
2013-06-04 01:52:00,53.8,51.2,29.89,SSW,197,0.0,0.0,91,0.00,,,0.00,LWC V1.00 B64,2013-06-04 08:52:00,
2013-06-04 01:57:00,53.8,50.9,29.89,SSW,202,0.0,0.0,90,0.00,,,0.00,LWC V1.00 B64,2013-06-04 08:57:00,
2013-06-04 02:02:00,53.7,50.8,29.89,SSW,202,0.0,0.0,90,0.00,,,0.00,LWC V1.00 B64,2013-06-04 09:02:00,
2013-06-04 02:07:00,53.6,50.7,29.89,SSW,202,0.0,1.0,90,0.00,,,0.00,LWC V1.00 B64,2013-06-04 09:07:00,
2013-06-04 02:12:00,53.5,50.9,29.89,SSW,202,0.0,0.0,91,0.00,,,0.00,LWC V1.00 B64,2013-06-04 09:12:00,
2013-06-04 02:17:00,53.5,50.9,29.88,SSW,207,1.0,3.0,91,0.00,,,0.00,LWC V1.00 B64,2013-06-04 09:17:00,
2013-06-04 02:22:00,53.6,51.0,29.88,SSW,206,0.0,1.0,91,0.00,,,0.00,LWC V1.00 B64,2013-06-04 09:22:00,
2013-06-04 02:27:00,53.6,51.0,29.88,SSW,207,0.0,0.0,91,0.00,,,0.00,LWC V1.00 B64,2013-06-04 09:27:00,
2013-06-04 02:32:00,53.5,50.9,29.88,SSW,209,0.0,1.0,91,0.00,,,0.00,LWC V1.00 B64,2013-06-04 09:32:00,
2013-06-04 02:37:00,53.6,51.0,29.88,SSW,209,0.0,2.0,91,0.00,,,0.00,LWC V1.00 B64,2013-06-04 09:37:00,
2013-06-04 02:42:00,53.6,51.0,29.88,SSW,209,0.0,2.0,91,0.00,,,0.00,LWC V1.00 B64,2013-06-04 09:42:00,
2013-06-04 02:47:00,53.6,51.0,29.88,SSW,210,2.0,2.0,91,0.00,,,0.00,LWC V1.00 B64,2013-06-04 09:47:00,
2013-06-04 02:52:00,53.5,50.9,29.88,SSW,210,0.0,0.0,91,0.00,,,0.00,LWC V1.00 B64,2013-06-04 09:52:00,
2013-06-04 02:57:00,53.4,50.8,29.88,SSW,210,0.0,2.0,91,0.00,,,0.00,LWC V1.00 B64,2013-06-04 09:57:00,
2013-06-04 03:02:00,53.4,50.8,29.88,West,259,4.0,4.0,91,0.00,,,0.00,LWC V1.00 B64,2013-06-04 10:02:00,
2013-06-04 03:07:00,53.3,50.7,29.88,West,259,0.0,0.0,91,0.00,,,0.00,LWC V1.00 B64,2013-06-04 10:07:00,
2013-06-04 03:12:00,53.3,50.7,29.88,West,259,0.0,0.0,91,0.00,,,0.00,LWC V1.00 B64,2013-06-04 10:12:00,
2013-06-04 03:18:00,53.4,50.8,29.88,WSW,257,0.0,1.0,91,0.00,,,0.00,LWC V1.00 B64,2013-06-04 10:18:00,
2013-06-04 03:23:00,53.3,50.7,29.88,WSW,258,0.0,0.0,91,0.00,,,0.00,LWC V1.00 B64,2013-06-04 10:23:00,
2013-06-04 03:27:00,53.3,50.7,29.88,WSW,258,0.0,0.0,91,0.00,,,0.00,LWC V1.00 B64,2013-06-04 10:27:00,
2013-06-04 03:33:00,53.3,50.7,29.88,WSW,258,0.0,0.0,91,0.00,,,0.00,LWC V1.00 B64,2013-06-04 10:33:00,
2013-06-04 03:38:00,53.3,50.7,29.88,WSW,257,0.0,0.0,91,0.00,,,0.00,LWC V1.00 B64,2013-06-04 10:38:00,
2013-06-04 03:43:00,53.3,51.0,29.88,WSW,258,0.0,2.0,92,0.00,,,0.00,LWC V1.00 B64,2013-06-04 10:43:00,
2013-06-04 03:48:00,53.3,50.7,29.88,WSW,258,0.0,0.0,91,0.00,,,0.00,LWC V1.00 B64,2013-06-04 10:48:00,
2013-06-04 03:53:00,53.3,51.0,29.88,WSW,257,0.0,0.0,92,0.00,,,0.00,LWC V1.00 B64,2013-06-04 10:53:00,
2013-06-04 03:58:00,53.4,51.1,29.88,WSW,257,0.0,0.0,92,0.00,,,0.00,LWC V1.00 B64,2013-06-04 10:58:00,
2013-06-04 04:03:00,53.5,51.2,29.88,WSW,258,0.0,0.0,92,0.00,,,0.00,LWC V1.00 B64,2013-06-04 11:03:00,
2013-06-04 04:08:00,53.5,51.2,29.88,WSW,258,1.0,2.0,92,0.00,,,0.00,LWC V1.00 B64,2013-06-04 11:08:00,
2013-06-04 04:13:00,53.5,51.2,29.88,WSW,257,0.0,2.0,92,0.00,,,0.00,LWC V1.00 B64,2013-06-04 11:13:00,
2013-06-04 04:18:00,53.4,51.1,29.88,WSW,257,0.0,1.0,92,0.00,,,0.00,LWC V1.00 B64,2013-06-04 11:18:00,
2013-06-04 04:23:00,53.4,51.1,29.88,WSW,258,0.0,1.0,92,0.00,,,0.00,LWC V1.00 B64,2013-06-04 11:23:00,
2013-06-04 04:28:00,53.4,51.1,29.88,WSW,257,0.0,0.0,92,0.00,,,0.00,LWC V1.00 B64,2013-06-04 11:28:00,
2013-06-04 04:33:00,53.4,51.1,29.88,WSW,257,0.0,0.0,92,0.00,,,0.00,LWC V1.00 B64,2013-06-04 11:33:00,
2013-06-04 04:38:00,53.4,51.1,29.88,WSW,258,0.0,0.0,92,0.00,,,0.00,LWC V1.00 B64,2013-06-04 11:38:00,
2013-06-04 04:43:00,53.3,51.0,29.88,WSW,247,0.0,0.0,92,0.00,,,0.00,LWC V1.00 B64,2013-06-04 11:43:00,
2013-06-04 04:48:00,53.3,51.0,29.88,SSW,197,2.0,4.0,92,0.00,,,0.00,LWC V1.00 B64,2013-06-04 11:48:00,
2013-06-04 04:53:00,53.3,51.0,29.88,WSW,242,0.0,4.0,92,0.00,,,0.00,LWC V1.00 B64,2013-06-04 11:53:00,
2013-06-04 04:58:00,53.3,51.0,29.88,WSW,240,0.0,3.0,92,0.00,,,0.00,LWC V1.00 B64,2013-06-04 11:58:00,
2013-06-04 05:03:00,53.3,51.0,29.88,SW,230,0.0,2.0,92,0.00,,,0.00,LWC V1.00 B64,2013-06-04 12:03:00,
2013-06-04 05:08:00,53.3,51.0,29.88,SW,231,0.0,0.0,92,0.00,,,0.00,LWC V1.00 B64,2013-06-04 12:08:00,
2013-06-04 05:13:00,53.3,51.0,29.88,SW,230,0.0,0.0,92,0.00,,,0.00,LWC V1.00 B64,2013-06-04 12:13:00,
2013-06-04 05:18:00,53.4,51.1,29.89,SW,231,0.0,0.0,92,0.00,,,0.00,LWC V1.00 B64,2013-06-04 12:18:00,
2013-06-04 05:23:00,53.4,51.1,29.89,SW,231,0.0,2.0,92,0.00,,,0.00,LWC V1.00 B64,2013-06-04 12:23:00,
2013-06-04 05:28:00,53.4,51.1,29.89,SW,231,0.0,3.0,92,0.00,,,0.00,LWC V1.00 B64,2013-06-04 12:28:00,
2013-06-04 05:33:00,53.5,51.2,29.89,SW,231,0.0,3.0,92,0.00,,,0.00,LWC V1.00 B64,2013-06-04 12:33:00,
2013-06-04 05:38:00,53.5,51.2,29.89,SW,230,0.0,2.0,92,0.00,,,0.00,LWC V1.00 B64,2013-06-04 12:38:00,
2013-06-04 05:43:00,53.5,51.2,29.89,SW,231,0.0,1.0,92,0.00,,,0.00,LWC V1.00 B64,2013-06-04 12:43:00,
2013-06-04 05:48:00,53.5,51.2,29.90,SW,230,0.0,1.0,92,0.00,,,0.00,LWC V1.00 B64,2013-06-04 12:48:00,
2013-06-04 05:53:00,53.5,51.2,29.90,SW,231,0.0,4.0,92,0.00,,,0.00,LWC V1.00 B64,2013-06-04 12:53:00,
2013-06-04 05:58:00,53.5,51.2,29.90,SW,226,0.0,1.0,92,0.00,,,0.00,LWC V1.00 B64,2013-06-04 12:58:00,
2013-06-04 06:03:00,53.5,51.2,29.90,SW,226,3.0,3.0,92,0.00,,,0.00,LWC V1.00 B64,2013-06-04 13:03:00,
2013-06-04 06:08:00,53.6,51.3,29.90,SW,226,0.0,1.0,92,0.00,,,0.00,LWC V1.00 B64,2013-06-04 13:08:00,
2013-06-04 06:13:00,53.5,51.2,29.90,SW,226,0.0,0.0,92,0.00,,,0.00,LWC V1.00 B64,2013-06-04 13:13:00,
2013-06-04 06:18:00,53.5,51.2,29.90,SW,226,1.0,3.0,92,0.00,,,0.00,LWC V1.00 B64,2013-06-04 13:18:00,
2013-06-04 06:23:00,53.5,51.2,29.90,SW,226,0.0,1.0,92,0.00,,,0.00,LWC V1.00 B64,2013-06-04 13:23:00,
2013-06-04 06:28:00,53.5,51.2,29.90,SW,226,0.0,2.0,92,0.00,,,0.00,LWC V1.00 B64,2013-06-04 13:28:00,
2013-06-04 06:33:00,53.5,51.2,29.91,SW,226,1.0,2.0,92,0.00,,,0.00,LWC V1.00 B64,2013-06-04 13:33:00,
2013-06-04 06:38:00,53.5,51.2,29.91,SW,226,0.0,0.0,92,0.00,,,0.00,LWC V1.00 B64,2013-06-04 13:38:00,
2013-06-04 06:43:00,53.4,51.1,29.91,SW,226,0.0,1.0,92,0.00,,,0.00,LWC V1.00 B64,2013-06-04 13:43:00,
2013-06-04 06:48:00,53.4,51.1,29.91,SW,226,0.0,1.0,92,0.00,,,0.00,LWC V1.00 B64,2013-06-04 13:48:00,
2013-06-04 06:53:00,53.5,51.2,29.92,SW,226,0.0,0.0,92,0.00,,,0.00,LWC V1.00 B64,2013-06-04 13:53:00,
2013-06-04 06:58:00,53.5,51.2,29.92,SW,226,0.0,1.0,92,0.00,,,0.00,LWC V1.00 B64,2013-06-04 13:58:00,
2013-06-04 07:03:00,53.6,51.3,29.91,SW,226,2.0,2.0,92,0.00,,,0.00,LWC V1.00 B64,2013-06-04 14:03:00,
2013-06-04 07:08:00,53.6,51.3,29.91,SW,216,0.0,0.0,92,0.00,,,0.00,LWC V1.00 B64,2013-06-04 14:08:00,
2013-06-04 07:13:00,53.8,51.5,29.91,SSW,202,0.0,2.0,92,0.00,,,0.00,LWC V1.00 B64,2013-06-04 14:13:00,
2013-06-04 07:18:00,54.0,51.7,29.91,SSW,202,0.0,1.0,92,0.00,,,0.00,LWC V1.00 B64,2013-06-04 14:18:00,
2013-06-04 07:23:00,54.0,51.7,29.92,SSW,202,0.0,1.0,92,0.00,,,0.00,LWC V1.00 B64,2013-06-04 14:23:00,
2013-06-04 07:28:00,54.0,51.7,29.92,SSW,205,0.0,3.0,92,0.00,,,0.00,LWC V1.00 B64,2013-06-04 14:28:00,
2013-06-04 07:33:00,54.2,51.9,29.92,SW,215,1.0,5.0,92,0.00,,,0.00,LWC V1.00 B64,2013-06-04 14:33:00,
2013-06-04 07:38:00,54.2,51.9,29.92,SSW,207,0.0,5.0,92,0.00,,,0.00,LWC V1.00 B64,2013-06-04 14:38:00,
2013-06-04 07:43:00,54.3,52.0,29.93,WSW,238,3.0,4.0,92,0.00,,,0.00,LWC V1.00 B64,2013-06-04 14:43:00,
2013-06-04 07:48:00,54.4,51.8,29.93,SW,236,0.0,3.0,91,0.00,,,0.00,LWC V1.00 B64,2013-06-04 14:48:00,
2013-06-04 07:53:00,54.5,51.9,29.93,SW,229,0.0,0.0,91,0.00,,,0.00,LWC V1.00 B64,2013-06-04 14:53:00,
2013-06-04 07:58:00,54.6,52.0,29.93,SW,229,1.0,3.0,91,0.00,,,0.00,LWC V1.00 B64,2013-06-04 14:58:00,
2013-06-04 08:03:00,54.7,52.1,29.93,SW,229,0.0,2.0,91,0.00,,,0.00,LWC V1.00 B64,2013-06-04 15:03:00,
2013-06-04 08:08:00,54.8,52.2,29.93,SW,227,0.0,1.0,91,0.00,,,0.00,LWC V1.00 B64,2013-06-04 15:08:00,
2013-06-04 08:13:00,54.7,52.1,29.94,SW,227,0.0,1.0,91,0.00,,,0.00,LWC V1.00 B64,2013-06-04 15:13:00,
2013-06-04 08:18:00,54.7,52.1,29.94,SW,214,2.0,3.0,91,0.00,,,0.00,LWC V1.00 B64,2013-06-04 15:18:00,
2013-06-04 08:23:00,54.9,52.3,29.94,SSW,209,0.0,1.0,91,0.00,,,0.00,LWC V1.00 B64,2013-06-04 15:23:00,
2013-06-04 08:28:00,55.0,52.1,29.94,SSW,209,0.0,2.0,90,0.00,,,0.00,LWC V1.00 B64,2013-06-04 15:28:00,
2013-06-04 08:33:00,55.1,52.2,29.94,SSW,207,0.0,0.0,90,0.00,,,0.00,LWC V1.00 B64,2013-06-04 15:33:00,
2013-06-04 08:38:00,55.1,52.2,29.94,SSE,162,1.0,2.0,90,0.00,,,0.00,LWC V1.00 B64,2013-06-04 15:38:00,
2013-06-04 08:43:00,55.2,52.3,29.95,SSE,163,1.0,3.0,90,0.00,,,0.00,LWC V1.00 B64,2013-06-04 15:43:00,
2013-06-04 08:48:00,55.4,52.5,29.95,SSE,163,0.0,1.0,90,0.00,,,0.00,LWC V1.00 B64,2013-06-04 15:48:00,
2013-06-04 08:53:00,55.4,52.2,29.94,SSE,164,0.0,3.0,89,0.00,,,0.00,LWC V1.00 B64,2013-06-04 15:53:00,
2013-06-04 08:58:00,55.5,52.3,29.95,SSE,164,0.0,1.0,89,0.00,,,0.00,LWC V1.00 B64,2013-06-04 15:58:00,
2013-06-04 09:03:00,55.7,52.5,29.95,SSE,164,0.0,2.0,89,0.00,,,0.00,LWC V1.00 B64,2013-06-04 16:03:00,
2013-06-04 09:08:00,55.9,52.7,29.95,SSW,192,0.0,3.0,89,0.00,,,0.00,LWC V1.00 B64,2013-06-04 16:08:00,
2013-06-04 09:13:00,56.1,52.9,29.95,SSW,193,0.0,1.0,89,0.00,,,0.00,LWC V1.00 B64,2013-06-04 16:13:00,
2013-06-04 09:18:00,56.2,52.7,29.95,SSW,194,0.0,3.0,88,0.00,,,0.00,LWC V1.00 B64,2013-06-04 16:18:00,
2013-06-04 09:23:00,56.4,53.2,29.95,SSW,193,1.0,1.0,89,0.00,,,0.00,LWC V1.00 B64,2013-06-04 16:23:00,
2013-06-04 09:28:00,56.7,53.5,29.95,SSW,192,0.0,4.0,89,0.00,,,0.00,LWC V1.00 B64,2013-06-04 16:28:00,
2013-06-04 09:33:00,56.5,53.0,29.95,SSW,213,0.0,5.0,88,0.00,,,0.00,LWC V1.00 B64,2013-06-04 16:33:00,
2013-06-04 09:38:00,56.7,53.2,29.95,SW,214,0.0,4.0,88,0.00,,,0.00,LWC V1.00 B64,2013-06-04 16:38:00,
2013-06-04 09:43:00,56.8,53.3,29.95,SW,214,0.0,3.0,88,0.00,,,0.00,LWC V1.00 B64,2013-06-04 16:43:00,
2013-06-04 09:48:00,57.1,53.6,29.95,SW,214,0.0,1.0,88,0.00,,,0.00,LWC V1.00 B64,2013-06-04 16:48:00,
2013-06-04 09:53:00,57.2,53.7,29.95,SW,214,1.0,3.0,88,0.00,,,0.00,LWC V1.00 B64,2013-06-04 16:53:00,
2013-06-04 09:58:00,57.3,53.5,29.95,SW,233,0.0,5.0,87,0.00,,,0.00,LWC V1.00 B64,2013-06-04 16:58:00,
2013-06-04 10:03:00,57.4,53.6,29.96,SSW,202,2.0,6.0,87,0.00,,,0.00,LWC V1.00 B64,2013-06-04 17:03:00,
2013-06-04 10:08:00,57.3,53.5,29.96,SSW,209,0.0,4.0,87,0.00,,,0.00,LWC V1.00 B64,2013-06-04 17:08:00,
2013-06-04 10:13:00,57.5,54.0,29.96,SSW,209,0.0,2.0,88,0.00,,,0.00,LWC V1.00 B64,2013-06-04 17:13:00,
2013-06-04 10:18:00,57.6,53.8,29.96,SW,217,1.0,2.0,87,0.00,,,0.00,LWC V1.00 B64,2013-06-04 17:18:00,
2013-06-04 10:23:00,57.6,53.8,29.96,SW,219,0.0,2.0,87,0.00,,,0.00,LWC V1.00 B64,2013-06-04 17:23:00,
2013-06-04 10:28:00,57.7,54.2,29.96,SSW,210,0.0,4.0,88,0.00,,,0.00,LWC V1.00 B64,2013-06-04 17:28:00,
2013-06-04 10:33:00,57.6,53.8,29.96,SSW,201,2.0,4.0,87,0.00,,,0.00,LWC V1.00 B64,2013-06-04 17:33:00,
2013-06-04 10:38:00,57.7,54.2,29.96,SSW,200,0.0,2.0,88,0.00,,,0.00,LWC V1.00 B64,2013-06-04 17:38:00,
2013-06-04 10:43:00,57.8,54.0,29.96,SSW,202,0.0,3.0,87,0.00,,,0.00,LWC V1.00 B64,2013-06-04 17:43:00,
2013-06-04 10:48:00,57.8,54.0,29.97,SSW,200,1.0,4.0,87,0.00,,,0.00,LWC V1.00 B64,2013-06-04 17:48:00,
2013-06-04 10:53:00,58.0,54.2,29.97,SSW,211,3.0,5.0,87,0.00,,,0.00,LWC V1.00 B64,2013-06-04 17:53:00,
2013-06-04 10:58:00,58.0,54.2,29.97,SSW,198,1.0,2.0,87,0.00,,,0.00,LWC V1.00 B64,2013-06-04 17:58:00,
2013-06-04 11:03:00,58.1,53.9,29.97,SSW,200,1.0,2.0,86,0.00,,,0.00,LWC V1.00 B64,2013-06-04 18:03:00,
2013-06-04 11:08:00,58.0,53.8,29.97,South,178,0.0,5.0,86,0.00,,,0.00,LWC V1.00 B64,2013-06-04 18:08:00,
2013-06-04 11:13:00,58.0,54.2,29.97,SW,218,1.0,3.0,87,0.00,,,0.00,LWC V1.00 B64,2013-06-04 18:13:00,
2013-06-04 11:18:00,57.9,53.7,29.97,SSW,209,2.0,2.0,86,0.00,,,0.00,LWC V1.00 B64,2013-06-04 18:18:00,
2013-06-04 11:23:00,58.0,53.8,29.97,SSW,202,0.0,1.0,86,0.00,,,0.00,LWC V1.00 B64,2013-06-04 18:23:00,
2013-06-04 11:28:00,58.2,54.3,29.97,South,188,0.0,4.0,87,0.00,,,0.00,LWC V1.00 B64,2013-06-04 18:28:00,
2013-06-04 11:33:00,58.5,54.6,29.98,SW,214,4.0,6.0,87,0.00,,,0.00,LWC V1.00 B64,2013-06-04 18:33:00,
2013-06-04 11:38:00,58.4,53.9,29.98,SW,221,1.0,6.0,85,0.00,,,0.00,LWC V1.00 B64,2013-06-04 18:38:00,
2013-06-04 11:43:00,58.4,53.9,29.98,SSW,198,1.0,2.0,85,0.00,,,0.00,LWC V1.00 B64,2013-06-04 18:43:00,
2013-06-04 11:48:00,58.6,54.4,29.98,SSW,211,2.0,5.0,86,0.00,,,0.00,LWC V1.00 B64,2013-06-04 18:48:00,
2013-06-04 11:53:00,58.5,54.3,29.98,SSW,205,3.0,5.0,86,0.00,,,0.00,LWC V1.00 B64,2013-06-04 18:53:00,
2013-06-04 11:58:00,58.7,54.5,29.98,SSW,213,2.0,5.0,86,0.00,,,0.00,LWC V1.00 B64,2013-06-04 18:58:00,
2013-06-04 12:03:00,58.6,54.4,29.98,SSW,213,0.0,4.0,86,0.00,,,0.00,LWC V1.00 B64,2013-06-04 19:03:00,
2013-06-04 12:08:00,58.5,54.0,29.98,SSW,202,2.0,3.0,85,0.00,,,0.00,LWC V1.00 B64,2013-06-04 19:08:00,
2013-06-04 12:13:00,58.5,54.0,29.98,SW,215,0.0,6.0,85,0.00,,,0.00,LWC V1.00 B64,2013-06-04 19:13:00,
2013-06-04 12:18:00,58.5,54.3,29.98,SSW,211,0.0,5.0,86,0.00,,,0.00,LWC V1.00 B64,2013-06-04 19:18:00,
2013-06-04 12:24:00,58.7,54.5,29.98,WSW,246,5.0,7.0,86,0.00,,,0.00,LWC V1.00 B64,2013-06-04 19:24:00,
2013-06-04 12:30:00,58.8,54.6,29.98,SW,214,3.0,10.0,86,0.00,,,0.00,LWC V1.00 B64,2013-06-04 19:30:00,
2013-06-04 12:35:00,58.7,54.5,29.98,SSW,210,6.0,9.0,86,0.00,,,0.00,LWC V1.00 B64,2013-06-04 19:35:00,
2013-06-04 12:40:00,58.6,54.4,29.98,SW,217,0.0,3.0,86,0.00,,,0.00,LWC V1.00 B64,2013-06-04 19:40:00,
2013-06-04 12:45:00,59.0,54.5,29.98,SW,221,4.0,11.0,85,0.00,,,0.00,LWC V1.00 B64,2013-06-04 19:45:00,
2013-06-04 12:50:00,59.1,54.6,29.98,SSW,205,0.0,2.0,85,0.00,,,0.00,LWC V1.00 B64,2013-06-04 19:50:00,
2013-06-04 12:55:00,59.0,54.5,29.98,SSW,211,2.0,4.0,85,0.00,,,0.00,LWC V1.00 B64,2013-06-04 19:55:00,
2013-06-04 13:00:00,59.3,54.8,29.98,South,188,1.0,3.0,85,0.00,,,0.00,LWC V1.00 B64,2013-06-04 20:00:00,
2013-06-04 13:05:00,59.8,55.0,29.98,SSW,211,1.0,4.0,84,0.00,,,0.00,LWC V1.00 B64,2013-06-04 20:05:00,
2013-06-04 13:10:00,60.0,54.8,29.98,SW,226,7.0,9.0,83,0.00,,,0.00,LWC V1.00 B64,2013-06-04 20:10:00,
2013-06-04 13:15:00,60.2,55.0,29.98,SSW,200,3.0,6.0,83,0.00,,,0.00,LWC V1.00 B64,2013-06-04 20:15:00,
2013-06-04 13:20:00,60.2,55.0,29.98,SSW,206,2.0,6.0,83,0.00,,,0.00,LWC V1.00 B64,2013-06-04 20:20:00,
2013-06-04 13:25:00,60.3,55.1,29.98,SW,214,3.0,3.0,83,0.00,,,0.00,LWC V1.00 B64,2013-06-04 20:25:00,
2013-06-04 13:30:00,60.4,54.9,29.98,SSW,199,1.0,3.0,82,0.00,,,0.00,LWC V1.00 B64,2013-06-04 20:30:00,
2013-06-04 13:35:00,60.4,55.2,29.98,SW,223,7.0,7.0,83,0.00,,,0.00,LWC V1.00 B64,2013-06-04 20:35:00,
2013-06-04 13:40:00,60.4,55.2,29.98,SSW,213,3.0,6.0,83,0.00,,,0.00,LWC V1.00 B64,2013-06-04 20:40:00,
2013-06-04 13:45:00,60.7,55.5,29.98,SSW,211,2.0,4.0,83,0.00,,,0.00,LWC V1.00 B64,2013-06-04 20:45:00,
2013-06-04 13:50:00,60.8,55.3,29.98,SSW,198,0.0,2.0,82,0.00,,,0.00,LWC V1.00 B64,2013-06-04 20:50:00,
2013-06-04 13:55:00,60.9,55.7,29.98,SSW,205,4.0,10.0,83,0.00,,,0.00,LWC V1.00 B64,2013-06-04 20:55:00,
2013-06-04 14:00:00,60.9,55.4,29.98,SW,217,3.0,7.0,82,0.00,,,0.00,LWC V1.00 B64,2013-06-04 21:00:00,
2013-06-04 14:05:00,60.9,55.4,29.98,SW,217,7.0,7.0,82,0.00,,,0.00,LWC V1.00 B64,2013-06-04 21:05:00,
2013-06-04 14:10:00,60.7,54.8,29.98,SW,217,3.0,4.0,81,0.00,,,0.00,LWC V1.00 B64,2013-06-04 21:10:00,
2013-06-04 14:15:00,60.9,55.4,29.98,SSW,213,0.0,2.0,82,0.00,,,0.00,LWC V1.00 B64,2013-06-04 21:15:00,
2013-06-04 14:20:00,60.8,54.9,29.98,SSW,204,0.0,4.0,81,0.00,,,0.00,LWC V1.00 B64,2013-06-04 21:20:00,
2013-06-04 14:25:00,60.7,55.2,29.98,SW,215,4.0,7.0,82,0.00,,,0.00,LWC V1.00 B64,2013-06-04 21:25:00,
2013-06-04 14:30:00,60.6,55.1,29.98,SSW,198,3.0,4.0,82,0.00,,,0.00,LWC V1.00 B64,2013-06-04 21:30:00,
2013-06-04 14:35:00,60.9,55.4,29.98,SSW,206,2.0,5.0,82,0.00,,,0.00,LWC V1.00 B64,2013-06-04 21:35:00,
2013-06-04 14:40:00,60.9,55.0,29.98,SW,217,0.0,5.0,81,0.00,,,0.00,LWC V1.00 B64,2013-06-04 21:40:00,
2013-06-04 14:45:00,60.9,55.0,29.98,SSW,206,6.0,9.0,81,0.00,,,0.00,LWC V1.00 B64,2013-06-04 21:45:00,
2013-06-04 14:50:00,61.1,55.2,29.98,SSW,196,2.0,5.0,81,0.00,,,0.00,LWC V1.00 B64,2013-06-04 21:50:00,
2013-06-04 14:55:00,61.0,55.1,29.98,SSW,201,3.0,5.0,81,0.00,,,0.00,LWC V1.00 B64,2013-06-04 21:55:00,
2013-06-04 15:00:00,60.9,55.0,29.98,SSW,202,0.0,4.0,81,0.00,,,0.00,LWC V1.00 B64,2013-06-04 22:00:00,
2013-06-04 15:05:00,60.9,55.0,29.98,SSW,204,0.0,5.0,81,0.00,,,0.00,LWC V1.00 B64,2013-06-04 22:05:00,
2013-06-04 15:10:00,60.7,54.8,29.98,South,184,0.0,2.0,81,0.00,,,0.00,LWC V1.00 B64,2013-06-04 22:10:00,
2013-06-04 15:15:00,60.8,54.9,29.98,SW,221,3.0,3.0,81,0.00,,,0.00,LWC V1.00 B64,2013-06-04 22:15:00,
2013-06-04 15:20:00,60.6,54.7,29.98,SW,219,8.0,12.0,81,0.00,,,0.00,LWC V1.00 B64,2013-06-04 22:20:00,
2013-06-04 15:25:00,60.8,55.6,29.98,SW,215,0.0,2.0,83,0.00,,,0.00,LWC V1.00 B64,2013-06-04 22:25:00,
2013-06-04 15:30:00,60.8,54.9,29.97,SSW,212,4.0,12.0,81,0.00,,,0.00,LWC V1.00 B64,2013-06-04 22:30:00,
2013-06-04 15:35:00,60.6,54.7,29.97,South,172,0.0,5.0,81,0.00,,,0.00,LWC V1.00 B64,2013-06-04 22:35:00,
2013-06-04 15:40:00,60.6,54.7,29.97,SSW,207,6.0,14.0,81,0.00,,,0.00,LWC V1.00 B64,2013-06-04 22:40:00,
2013-06-04 15:45:00,60.4,54.5,29.97,SSW,209,5.0,7.0,81,0.00,,,0.00,LWC V1.00 B64,2013-06-04 22:45:00,
2013-06-04 15:50:00,60.5,54.6,29.97,SSW,204,2.0,11.0,81,0.00,,,0.00,LWC V1.00 B64,2013-06-04 22:50:00,
2013-06-04 15:55:00,60.2,54.7,29.97,SW,217,2.0,5.0,82,0.00,,,0.00,LWC V1.00 B64,2013-06-04 22:55:00,
2013-06-04 16:00:00,60.4,54.5,29.97,SSW,209,6.0,12.0,81,0.00,,,0.00,LWC V1.00 B64,2013-06-04 23:00:00,
2013-06-04 16:05:00,60.2,54.3,29.97,SSW,199,3.0,13.0,81,0.00,,,0.00,LWC V1.00 B64,2013-06-04 23:05:00,
2013-06-04 16:10:00,60.5,55.0,29.97,SW,223,2.0,14.0,82,0.00,,,0.00,LWC V1.00 B64,2013-06-04 23:10:00,
2013-06-04 16:15:00,60.4,54.5,29.97,SSW,196,2.0,10.0,81,0.00,,,0.00,LWC V1.00 B64,2013-06-04 23:15:00,
2013-06-04 16:20:00,60.3,54.4,29.97,SW,214,5.0,12.0,81,0.00,,,0.00,LWC V1.00 B64,2013-06-04 23:20:00,
2013-06-04 16:25:00,60.1,53.9,29.97,South,190,1.0,6.0,80,0.00,,,0.00,LWC V1.00 B64,2013-06-04 23:25:00,
2013-06-04 16:30:00,60.2,54.7,29.97,SW,226,3.0,11.0,82,0.00,,,0.00,LWC V1.00 B64,2013-06-04 23:30:00,
2013-06-04 16:36:00,60.1,54.2,29.97,SW,217,6.0,6.0,81,0.00,,,0.00,LWC V1.00 B64,2013-06-04 23:36:00,
2013-06-04 16:41:00,60.0,54.1,29.97,South,191,4.0,6.0,81,0.00,,,0.00,LWC V1.00 B64,2013-06-04 23:41:00,
2013-06-04 16:46:00,59.7,54.2,29.97,South,185,3.0,3.0,82,0.00,,,0.00,LWC V1.00 B64,2013-06-04 23:46:00,
2013-06-04 16:51:00,59.5,54.0,29.97,SSW,205,1.0,5.0,82,0.00,,,0.00,LWC V1.00 B64,2013-06-04 23:51:00,
2013-06-04 16:56:00,59.2,53.7,29.97,SSE,161,1.0,3.0,82,0.00,,,0.00,LWC V1.00 B64,2013-06-04 23:56:00,
2013-06-04 17:01:00,59.1,53.6,29.97,South,188,0.0,2.0,82,0.00,,,0.00,LWC V1.00 B64,2013-06-05 00:01:00,
2013-06-04 17:06:00,59.0,53.2,29.97,SSW,202,2.0,5.0,81,0.00,,,0.00,LWC V1.00 B64,2013-06-05 00:06:00,
2013-06-04 17:11:00,58.9,53.7,29.97,SW,224,2.0,10.0,83,0.00,,,0.00,LWC V1.00 B64,2013-06-05 00:11:00,
2013-06-04 17:16:00,58.7,53.5,29.97,SSW,192,2.0,3.0,83,0.00,,,0.00,LWC V1.00 B64,2013-06-05 00:16:00,
2013-06-04 17:21:00,58.6,53.5,29.96,SSW,195,1.0,3.0,83,0.00,,,0.00,LWC V1.00 B64,2013-06-05 00:21:00,
2013-06-04 17:26:00,58.5,53.4,29.96,SSW,213,4.0,4.0,83,0.00,,,0.00,LWC V1.00 B64,2013-06-05 00:26:00,
2013-06-04 17:31:00,58.4,53.6,29.96,SSW,201,2.0,4.0,84,0.00,,,0.00,LWC V1.00 B64,2013-06-05 00:31:00,
2013-06-04 17:36:00,58.3,53.2,29.96,SW,217,3.0,4.0,83,0.00,,,0.00,LWC V1.00 B64,2013-06-05 00:36:00,
2013-06-04 17:41:00,58.2,53.4,29.96,SSW,209,2.0,4.0,84,0.00,,,0.00,LWC V1.00 B64,2013-06-05 00:41:00,
2013-06-04 17:46:00,58.2,53.1,29.96,SSW,204,1.0,4.0,83,0.00,,,0.00,LWC V1.00 B64,2013-06-05 00:46:00,
2013-06-04 17:51:00,58.0,53.2,29.96,South,191,2.0,4.0,84,0.00,,,0.00,LWC V1.00 B64,2013-06-05 00:51:00,
2013-06-04 17:56:00,58.0,53.2,29.96,South,182,1.0,1.0,84,0.00,,,0.00,LWC V1.00 B64,2013-06-05 00:56:00,
2013-06-04 18:01:00,58.0,53.2,29.96,South,188,2.0,3.0,84,0.00,,,0.00,LWC V1.00 B64,2013-06-05 01:01:00,
2013-06-04 18:06:00,57.8,53.0,29.96,South,183,2.0,3.0,84,0.00,,,0.00,LWC V1.00 B64,2013-06-05 01:06:00,
2013-06-04 18:11:00,57.8,53.3,29.96,SSW,200,0.0,2.0,85,0.00,,,0.00,LWC V1.00 B64,2013-06-05 01:11:00,
2013-06-04 18:16:00,57.5,52.7,29.96,SSW,200,0.0,1.0,84,0.00,,,0.00,LWC V1.00 B64,2013-06-05 01:16:00,
2013-06-04 18:21:00,57.7,53.2,29.96,SSW,201,2.0,4.0,85,0.00,,,0.00,LWC V1.00 B64,2013-06-05 01:21:00,
2013-06-04 18:26:00,57.8,53.3,29.96,SSW,201,3.0,3.0,85,0.00,,,0.00,LWC V1.00 B64,2013-06-05 01:26:00,
2013-06-04 18:31:00,57.8,53.3,29.96,SW,223,1.0,5.0,85,0.00,,,0.00,LWC V1.00 B64,2013-06-05 01:31:00,
2013-06-04 18:36:00,57.7,52.9,29.96,WSW,257,4.0,4.0,84,0.00,,,0.00,LWC V1.00 B64,2013-06-05 01:36:00,
2013-06-04 18:41:00,57.4,52.6,29.96,WSW,250,3.0,3.0,84,0.00,,,0.00,LWC V1.00 B64,2013-06-05 01:41:00,
2013-06-04 18:46:00,57.3,52.5,29.96,West,267,0.0,4.0,84,0.00,,,0.00,LWC V1.00 B64,2013-06-05 01:46:00,
2013-06-04 18:51:00,57.2,52.7,29.96,WSW,246,0.0,4.0,85,0.00,,,0.00,LWC V1.00 B64,2013-06-05 01:51:00,
2013-06-04 18:56:00,57.3,52.8,29.96,SW,218,0.0,5.0,85,0.00,,,0.00,LWC V1.00 B64,2013-06-05 01:56:00,
2013-06-04 19:01:00,57.2,52.7,29.96,SSW,211,0.0,3.0,85,0.00,,,0.00,LWC V1.00 B64,2013-06-05 02:01:00,
2013-06-04 19:06:00,56.9,52.4,29.96,SSW,211,1.0,2.0,85,0.00,,,0.00,LWC V1.00 B64,2013-06-05 02:06:00,
2013-06-04 19:11:00,56.7,52.2,29.96,SW,215,2.0,6.0,85,0.00,,,0.00,LWC V1.00 B64,2013-06-05 02:11:00,
2013-06-04 19:16:00,56.6,52.1,29.96,SW,216,0.0,3.0,85,0.00,,,0.00,LWC V1.00 B64,2013-06-05 02:16:00,
2013-06-04 19:21:00,56.6,52.5,29.96,WSW,249,0.0,4.0,86,0.00,,,0.00,LWC V1.00 B64,2013-06-05 02:21:00,
2013-06-04 19:26:00,56.5,52.4,29.96,WSW,248,0.0,1.0,86,0.00,,,0.00,LWC V1.00 B64,2013-06-05 02:26:00,
2013-06-04 19:31:00,56.3,51.8,29.96,West,266,0.0,5.0,85,0.00,,,0.00,LWC V1.00 B64,2013-06-05 02:31:00,
2013-06-04 19:36:00,56.1,52.0,29.96,West,265,1.0,4.0,86,0.00,,,0.00,LWC V1.00 B64,2013-06-05 02:36:00,
2013-06-04 19:41:00,56.0,51.9,29.97,WSW,248,0.0,6.0,86,0.00,,,0.00,LWC V1.00 B64,2013-06-05 02:41:00,
2013-06-04 19:46:00,56.0,52.2,29.96,SW,233,1.0,3.0,87,0.00,,,0.00,LWC V1.00 B64,2013-06-05 02:46:00,
2013-06-04 19:51:00,56.0,52.2,29.96,SW,223,2.0,5.0,87,0.00,,,0.00,LWC V1.00 B64,2013-06-05 02:51:00,
2013-06-04 19:56:00,56.0,52.2,29.96,SW,224,0.0,2.0,87,0.00,,,0.00,LWC V1.00 B64,2013-06-05 02:56:00,
2013-06-04 20:01:00,55.8,52.0,29.96,WSW,241,1.0,3.0,87,0.00,,,0.00,LWC V1.00 B64,2013-06-05 03:01:00,
2013-06-04 20:06:00,55.7,51.9,29.96,WSW,244,1.0,4.0,87,0.00,,,0.00,LWC V1.00 B64,2013-06-05 03:06:00,
2013-06-04 20:11:00,55.5,51.7,29.96,West,269,0.0,1.0,87,0.00,,,0.00,LWC V1.00 B64,2013-06-05 03:11:00,
2013-06-04 20:16:00,55.4,51.6,29.96,West,265,0.0,5.0,87,0.00,,,0.00,LWC V1.00 B64,2013-06-05 03:16:00,
2013-06-04 20:21:00,55.3,51.5,29.97,WSW,256,0.0,1.0,87,0.00,,,0.00,LWC V1.00 B64,2013-06-05 03:21:00,
2013-06-04 20:26:00,55.3,51.5,29.97,WSW,257,0.0,2.0,87,0.00,,,0.00,LWC V1.00 B64,2013-06-05 03:26:00,
2013-06-04 20:31:00,55.3,51.5,29.97,SSW,206,0.0,2.0,87,0.00,,,0.00,LWC V1.00 B64,2013-06-05 03:31:00,
2013-06-04 20:36:00,55.1,51.3,29.97,SSW,209,1.0,5.0,87,0.00,,,0.00,LWC V1.00 B64,2013-06-05 03:36:00,
2013-06-04 20:41:00,55.1,51.6,29.97,SSW,206,0.0,0.0,88,0.00,,,0.00,LWC V1.00 B64,2013-06-05 03:41:00,
2013-06-04 20:46:00,55.1,51.6,29.97,SSW,207,0.0,4.0,88,0.00,,,0.00,LWC V1.00 B64,2013-06-05 03:46:00,
2013-06-04 20:51:00,55.0,51.5,29.97,SW,233,0.0,5.0,88,0.00,,,0.00,LWC V1.00 B64,2013-06-05 03:51:00,
2013-06-04 20:56:00,55.0,51.5,29.97,SW,227,2.0,5.0,88,0.00,,,0.00,LWC V1.00 B64,2013-06-05 03:56:00,
2013-06-04 21:01:00,55.0,51.5,29.97,SW,229,0.0,2.0,88,0.00,,,0.00,LWC V1.00 B64,2013-06-05 04:01:00,
2013-06-04 21:03:00,55.0,51.5,29.97,SW,229,0.0,0.0,88,0.00,,,0.00,LWC V1.00 B64,2013-06-05 04:03:00,
2013-06-04 21:05:00,55.0,51.5,29.97,SW,229,0.0,1.0,88,0.00,,,0.00,LWC V1.00 B64,2013-06-05 04:05:00,
2013-06-04 21:10:00,55.0,51.5,29.97,SW,226,0.0,2.0,88,0.00,,,0.00,LWC V1.00 B64,2013-06-05 04:10:00,
2013-06-04 21:14:00,54.9,51.4,29.97,SW,226,0.0,3.0,88,0.00,,,0.00,LWC V1.00 B64,2013-06-05 04:14:00,
2013-06-04 21:19:00,54.8,51.3,29.97,West,267,0.0,2.0,88,0.00,,,0.00,LWC V1.00 B64,2013-06-05 04:19:00,
2013-06-04 21:24:00,54.7,51.2,29.97,West,268,0.0,3.0,88,0.00,,,0.00,LWC V1.00 B64,2013-06-05 04:24:00,
2013-06-04 21:29:00,54.7,51.2,29.98,West,263,0.0,2.0,88,0.00,,,0.00,LWC V1.00 B64,2013-06-05 04:29:00,
2013-06-04 21:34:00,54.9,51.4,29.98,West,262,0.0,1.0,88,0.00,,,0.00,LWC V1.00 B64,2013-06-05 04:34:00,
2013-06-04 21:39:00,54.9,51.7,29.98,SW,225,1.0,6.0,89,0.00,,,0.00,LWC V1.00 B64,2013-06-05 04:39:00,
2013-06-04 21:44:00,54.9,51.4,29.98,SW,223,0.0,0.0,88,0.00,,,0.00,LWC V1.00 B64,2013-06-05 04:44:00,
2013-06-04 21:49:00,54.8,51.3,29.98,SW,229,0.0,4.0,88,0.00,,,0.00,LWC V1.00 B64,2013-06-05 04:49:00,
2013-06-04 21:54:00,54.6,51.1,29.98,SW,214,5.0,5.0,88,0.00,,,0.00,LWC V1.00 B64,2013-06-05 04:54:00,
2013-06-04 21:59:00,54.6,51.1,29.98,WSW,245,2.0,4.0,88,0.00,,,0.00,LWC V1.00 B64,2013-06-05 04:59:00,
2013-06-04 22:04:00,54.5,51.0,29.98,WSW,253,0.0,0.0,88,0.00,,,0.00,LWC V1.00 B64,2013-06-05 05:04:00,
2013-06-04 22:09:00,54.6,51.1,29.99,WSW,254,0.0,1.0,88,0.00,,,0.00,LWC V1.00 B64,2013-06-05 05:09:00,
2013-06-04 22:14:00,54.5,51.0,29.99,WSW,255,0.0,1.0,88,0.00,,,0.00,LWC V1.00 B64,2013-06-05 05:14:00,
2013-06-04 22:19:00,54.5,51.0,29.99,WSW,254,1.0,1.0,88,0.00,,,0.00,LWC V1.00 B64,2013-06-05 05:19:00,
2013-06-04 22:24:00,54.6,51.4,29.99,WSW,253,0.0,2.0,89,0.00,,,0.00,LWC V1.00 B64,2013-06-05 05:24:00,
2013-06-04 22:29:00,54.6,51.4,29.99,WSW,250,2.0,5.0,89,0.00,,,0.00,LWC V1.00 B64,2013-06-05 05:29:00,
2013-06-04 22:34:00,54.5,51.0,29.99,West,274,0.0,5.0,88,0.00,,,0.00,LWC V1.00 B64,2013-06-05 05:34:00,
2013-06-04 22:39:00,54.4,50.9,29.99,West,265,0.0,1.0,88,0.00,,,0.00,LWC V1.00 B64,2013-06-05 05:39:00,
2013-06-04 22:44:00,54.5,51.3,29.99,West,263,1.0,2.0,89,0.00,,,0.00,LWC V1.00 B64,2013-06-05 05:44:00,
2013-06-04 22:49:00,54.6,51.4,29.99,SW,234,1.0,1.0,89,0.00,,,0.00,LWC V1.00 B64,2013-06-05 05:49:00,
2013-06-04 22:54:00,54.5,51.3,29.99,WSW,242,0.0,4.0,89,0.00,,,0.00,LWC V1.00 B64,2013-06-05 05:54:00,
2013-06-04 22:59:00,54.6,51.4,29.99,SW,234,3.0,4.0,89,0.00,,,0.00,LWC V1.00 B64,2013-06-05 05:59:00,
2013-06-04 23:04:00,54.6,51.4,29.99,WSW,247,2.0,4.0,89,0.00,,,0.00,LWC V1.00 B64,2013-06-05 06:04:00,
2013-06-04 23:09:00,54.5,51.3,29.99,WSW,246,2.0,2.0,89,0.00,,,0.00,LWC V1.00 B64,2013-06-05 06:09:00,
2013-06-04 23:14:00,54.6,51.4,29.99,WSW,246,0.0,0.0,89,0.00,,,0.00,LWC V1.00 B64,2013-06-05 06:14:00,
2013-06-04 23:19:00,54.5,51.3,29.99,WSW,245,0.0,0.0,89,0.00,,,0.00,LWC V1.00 B64,2013-06-05 06:19:00,
2013-06-04 23:24:00,54.5,51.3,29.99,SW,236,0.0,3.0,89,0.00,,,0.00,LWC V1.00 B64,2013-06-05 06:24:00,
2013-06-04 23:29:00,54.4,50.9,29.99,SW,220,0.0,1.0,88,0.00,,,0.00,LWC V1.00 B64,2013-06-05 06:29:00,
2013-06-04 23:34:00,54.5,51.3,30.00,SW,221,1.0,7.0,89,0.00,,,0.00,LWC V1.00 B64,2013-06-05 06:34:00,
2013-06-04 23:39:00,54.5,51.3,29.99,South,170,0.0,0.0,89,0.00,,,0.00,LWC V1.00 B64,2013-06-05 06:39:00,
2013-06-04 23:44:00,54.3,51.1,30.00,North,5,0.0,2.0,89,0.00,,,0.00,LWC V1.00 B64,2013-06-05 06:44:00,
2013-06-04 23:49:00,54.1,50.9,30.00,NNW,344,4.0,6.0,89,0.00,,,0.00,LWC V1.00 B64,2013-06-05 06:49:00,
2013-06-04 23:54:00,54.1,50.9,30.00,NNW,340,0.0,1.0,89,0.00,,,0.00,LWC V1.00 B64,2013-06-05 06:54:00,
2013-06-04 23:59:00,54.2,51.0,30.00,SSW,206,4.0,4.0,89,0.00,,,0.00,LWC V1.00 B64,2013-06-05 06:59:00,